Temperature
18 18 18 18 18 18 17 17 18 18 18 18 18 18 18 18 18 18 18 18 18 18 18 18 18 18 18 18 18 18 18 18 18 18 18 18 18 18 18 18 18 18 18
18 18 18 18 18 18 17 17 17 18 18 18 18 18 18 18 18 18 18 18 18 18 18 18 18 18 18 18 18 18 18 18 18 18 18 18 18 18 18 18 18 18 18
18 18 18 18 18 18 17 17 17 17 18 18 18 18 18 18 18 18 18 18 17 18 18 18 18 18 18 18 18 18 18 18 18 18 18 18 18 17 18 18 17 17 17
18 18 18 18 17 17 17 17 17 17 17 18 18 18 18 18 18 17 17 17 17 17 17 17 17 18 18 18 18 18 18 18 18 18 18 18 18 17 17 17 17 17 17
18 18 17 17 17 17 17 17 17 17 17 17 17 17 17 17 17 17 17 17 17 17 17 17 17 17 17 17 17 17 17 18 17 18 18 18 17 17 17 17 17 17 17
18 17 17 17 17 17 17 17 17 17 17 17 17 17 17 17 17 17 17 17 17 17 17 17 17 17 17 17 17 17 17 17 17 17 17 17 17 17 17 17 17 17 17
17 17 17 17 17 17 17 17 17 17 17 17 17 17 17 17 17 17 17 17 17 17 17 17 17 17 17 17 17 17 17 17 17 17 17 17 17 17 17 17 17 17 17
17 17 17 17 17 17 17 17 17 17 17 17 17 17 17 17 17 17 17 17 17 17 17 17 17 17 17 17 17 17 17 17 17 17 17 17 17 17 17 17 17 17 17
17 17 17 17 17 17 17 17 17 17 17 17 17 17 17 17 17 17 17 17 17 17 16 16 16 17 17 17 17 17 17 16 16 16 16 16 16 16 16 16 17 17 16
17 17 17 17 17 17 17 17 17 16 16 16 16 16 16 16 16 16 16 16 16 16 16 16 16 16 17 17 16 16 16 16 16 16 16 16 16 16 16 16 16 16 16
17 17 17 17 17 17 17 17 16 16 16 16 16 16 16 16 16 16 16 16 16 16 16 16 16 16 16 16 16 16 16 16 16 16 16 16 16 16 16 16 16 16 16
17 17 17 17 17 17 16 16 16 16 16 16 16 16 16 16 16 16 16 16 16 16 16 16 16 16 16 16 16 16 16 16 16 16 16 16 16 16 16 16 16 16 16
17 17 17 17 17 17 16 16 16 16 16 16 16 16 16 16 16 16 16 16 16 16 16 16 16 16 16 16 15 15 15 15 15 15 15 15 15 15 16 16 16 16 16
17 17 17 17 17 16 16 16 16 16 16 16 16 16 16 15 15 15 15 15 15 15 15 15 15 15 15 15 15 15 15 15 15 15 15 15 15 15 15 15 15 15 15
17 17 17 17 16 16 16 16 16 16 16 16 16 15 15 15 15 15 15 15 15 15 15 15 15 15 15 15 15 15 15 15 15 15 15 15 15 15 15 15 15 15 15
17 17 17 16 16 16 16 16 16 16 16 15 15 15 15 15 15 15 15 15 15 15 15 15 15 14 14 14 14 14 14 15 15 15 15 15 15 15 15 15 15 15 15
17 17 17 17 16 16 16 16 16 16 15 15 15 15 15 15 15 15 15 14 14 14 14 14 14 14 14 14 14 14 14 14 14 14 14 14 14 14 14 14 14 14 14
17 17 17 16 16 16 16 16 16 16 15 15 15 15 15 15 15 15 14 14 14 14 14 14 14 14 14 14 14 14 14 14 14 14 14 14 14 14 14 14 14 14 14
17 17 17 17 16 16 16 16 16 16 15 15 15 15 15 15 14 14 14 14 14 14 14 14 14 14 14 14 14 13 13 13 13 13 13 14 14 14 14 14 14 14 14
17 17 17 16 16 16 16 16 16 16 15 15 15 15 15 15 14 14 14 14 14 14 14 14 14 14 14 13 13 13 13 13 13 13 13 13 13 13 13 13 13 13 13
17 17 17 16 16 16 16 16 16 15 15 15 15 15 14 14 14 14 14 14 14 14 13 13 13 13 13 13 13 13 13 13 13 13 13 13 13 13 13 13 13 13 13
17 17 16 16 16 16 16 16 16 15 15 15 15 14 14 14 14 14 14 14 14 13 13 13 13 13 13 13 13 13 13 13 12 12 12 13 13 13 13 13 12 12 12
17 17 16 16 16 16 16 16 15 15 15 15 14 14 14 14 14 14 14 14 13 13 13 13 13 13 13 13 13 13 12 12 12 12 12 12 12 12 12 12 12 12 12
17 16 16 16 16 16 16 15 15 15 15 14 14 14 14 14 14 13 13 13 13 13 13 13 13 13 13 13 13 12 12 12 12 12 12 12 12 12 12 12 12 12 12
17 17 16 16 16 16 15 15 15 15 15 14 14 14 14 14 13 13 13 13 13 13 13 13 13 13 13 13 12 12 12 12 12 12 12 12 12 12 12 12 12 12 11
16 16 16 16 16 15 15 15 15 15 14 14 14 14 14 14 13 13 13 13 13 13 13 13 13 13 13 12 12 12 12 12 12 12 12 12 12 12 12 12 12 12 11
Wind_Speed
3 4 4 5 6 7 8 9 9 10 10 10 10 10 9 9 10 11 11 11 11 11 11 11 11 11 11 11 10 10 10 10 9 9 8 8 8 8 7 8 8 7 10
1 3 3 5 7 8 9 10 10 10 10 10 11 11 11 11 11 10 11 11 11 11 11 11 12 11 11 11 10 10 10 9 9 9 8 7 7 7 8 8 9 8 10
1 3 3 5 7 8 9 9 10 10 10 11 11 12 12 12 11 11 11 11 11 11 11 11 11 11 11 11 10 10 10 9 9 9 8 7 6 7 7 9 10 10 9
2 3 4 6 7 8 9 9 10 10 11 11 12 12 12 12 12 11 11 11 11 11 11 11 11 10 10 11 10 10 9 9 9 9 7 7 6 7 8 9 10 10 9
3 4 5 7 8 8 9 9 10 10 11 11 12 12 13 12 12 12 11 11 11 11 11 11 11 11 10 10 10 10 9 9 10 9 7 7 6 8 10 10 10 10 10
3 4 5 7 7 8 9 9 10 11 11 11 11 12 12 12 11 11 11 10 11 11 11 10 11 11 10 10 10 10 10 9 9 8 7 7 6 8 10 10 10 10 10
3 4 5 7 7 8 8 8 9 10 11 11 11 11 11 12 12 11 11 11 11 12 12 11 11 10 10 11 10 10 10 9 8 7 7 6 7 8 9 10 10 10 10
3 4 5 6 7 8 8 8 9 10 10 11 11 11 12 12 13 13 13 13 13 12 12 12 12 11 10 10 10 10 9 8 7 7 7 6 7 8 9 10 10 9 9
3 4 4 5 6 7 8 8 9 10 11 11 12 12 13 13 13 14 15 15 14 13 13 13 11 11 10 10 10 9 9 9 8 6 6 6 8 8 9 9 9 9 8
3 3 3 4 6 6 7 7 9 10 10 11 12 12 13 13 13 14 14 14 15 15 14 13 12 11 10 10 10 10 9 8 7 6 5 6 8 9 9 9 9 9 8
2 3 3 3 4 5 6 7 7 9 9 10 10 11 12 11 11 12 13 14 15 15 14 14 13 13 12 11 11 11 9 7 6 6 5 7 8 9 9 9 8 8 8
0 1 2 2 2 4 4 6 7 7 8 9 8 9 9 10 10 11 14 14 14 14 14 14 13 13 11 9 10 10 8 8 7 5 6 7 8 8 8 8 8 8 8
1 0 1 1 2 3 3 4 5 6 6 7 7 7 8 9 9 10 10 10 11 12 11 11 11 10 9 8 8 8 8 7 6 6 7 8 8 8 8 9 9 8 8
1 1 0 1 2 2 3 3 4 4 4 5 6 7 7 5 6 6 6 7 8 8 8 8 8 9 9 9 8 8 8 7 7 7 8 10 9 9 9 9 8 8 8
2 2 1 0 1 2 3 2 3 3 4 4 5 6 6 4 4 4 5 6 6 7 7 6 6 7 7 7 8 8 7 7 7 8 7 10 10 9 10 10 9 8 8
3 3 1 1 2 3 3 2 2 3 4 5 4 5 6 5 4 4 4 4 5 6 7 6 6 5 5 6 7 7 7 7 7 8 8 9 11 11 10 10 10 10 9
4 3 2 2 2 3 3 3 3 3 4 3 3 4 5 5 5 4 4 4 4 6 7 6 6 6 5 6 7 6 6 7 7 8 8 8 8 10 10 9 9 10 10
3 3 3 3 3 2 2 3 3 3 4 3 3 4 5 5 5 4 4 3 4 5 5 4 4 5 5 5 5 5 5 6 7 7 8 8 8 8 9 10 9 9 10
4 4 3 3 3 3 3 3 3 4 3 3 3 3 4 4 5 4 3 3 4 4 3 4 4 3 4 4 4 5 5 5 5 6 6 7 8 8 8 9 10 10 10
3 3 3 3 3 3 3 3 3 3 2 3 2 2 4 4 5 5 3 3 4 4 3 3 4 4 3 3 4 5 4 4 4 5 5 5 7 7 7 8 8 8 9
3 4 4 4 3 3 2 2 2 1 1 1 1 2 3 4 4 4 3 3 3 3 3 3 3 4 3 2 3 3 4 4 5 4 4 4 5 6 6 6 6 6 6
3 3 4 4 3 3 3 2 2 2 1 1 1 2 2 2 3 3 3 3 3 3 3 3 3 2 2 2 2 2 3 4 4 4 4 3 4 4 5 6 6 6 6
4 4 4 4 4 3 3 3 3 3 3 2 1 0 1 2 2 3 3 3 3 3 3 2 3 3 2 1 2 2 2 1 2 3 3 3 3 3 3 4 4 5 5
5 4 4 4 4 4 4 5 5 3 2 2 1 1 0 1 2 3 3 3 3 2 3 2 2 2 3 1 1 1 1 2 2 1 3 3 3 3 3 3 3 3 3
5 5 4 4 4 4 4 5 5 3 2 1 1 1 1 0 1 1 3 3 2 2 2 2 2 2 2 2 2 1 1 2 1 2 1 3 3 2 2 2 2 2 2
3 4 4 5 4 4 4 4 5 5 3 3 2 1 1 0 0 1 2 2 2 2 2 2 2 2 2 2 2 2 2 2 2 2 2 1 2 2 2 2 2 2 2
Wind_Direction
311 316 355 47 55 55 53 53 56 58 58 61 65 67 73 85 89 89 88 89 95 103 110 111 110 109 110 111 111 109 109 109 106 102 101 102 103 106 112 117 117 116 121
269 332 28 48 61 60 60 61 60 60 61 64 68 69 73 80 85 88 90 92 95 99 103 105 104 106 105 104 105 106 106 104 100 97 93 90 96 103 111 113 115 114 115
52 24 37 60 67 65 67 69 67 65 63 65 69 71 72 77 80 82 87 92 96 98 99 99 101 104 104 101 98 98 98 98 97 91 79 73 84 97 109 111 115 113 112
75 44 54 69 70 69 69 70 70 69 67 67 69 72 72 73 76 76 79 87 93 96 95 92 92 95 99 97 94 93 91 87 89 86 75 70 75 89 103 109 113 111 108
64 46 56 72 73 71 70 71 71 70 66 66 68 69 71 73 75 74 74 80 86 89 90 90 89 88 91 92 92 92 90 87 87 82 73 70 73 91 101 107 109 108 103
64 48 56 71 73 74 72 74 74 73 70 67 67 68 69 70 71 72 76 82 87 90 90 90 90 89 90 92 93 91 89 87 82 79 71 70 76 89 99 104 108 106 103
82 54 60 69 68 71 73 73 77 76 73 70 66 69 69 69 67 67 70 80 90 89 88 92 92 88 90 88 89 89 87 85 82 79 72 68 78 88 97 101 102 105 106
91 60 57 66 67 67 67 73 76 75 74 71 67 66 67 68 67 65 68 80 86 88 88 90 91 87 85 84 85 84 83 85 83 78 69 66 79 87 94 95 99 103 104
73 61 51 54 59 64 64 70 76 78 76 72 69 64 63 65 67 67 68 74 79 82 85 85 85 86 85 82 79 80 78 78 75 73 74 72 78 82 88 90 94 98 99
54 49 45 49 54 54 56 67 77 78 77 73 71 66 64 60 59 63 67 71 75 78 80 79 77 82 81 80 77 76 77 74 71 69 64 73 78 83 86 85 86 87 90
47 28 31 41 48 55 60 62 69 71 69 66 65 65 63 55 52 54 63 69 71 73 75 75 74 76 75 72 72 72 70 66 66 62 64 72 78 83 87 85 82 84 83
353 351 22 23 40 54 68 61 61 65 60 58 60 64 62 57 53 53 55 63 68 69 69 69 70 68 66 63 64 63 63 61 58 57 70 73 76 81 88 89 85 84 84
210 264 16 17 43 69 76 74 64 62 61 60 61 67 68 61 55 52 51 53 57 59 60 61 60 56 58 60 60 59 60 63 57 55 61 70 74 75 80 85 82 80 84
167 211 18 38 75 82 90 85 78 71 67 62 60 69 76 67 59 55 54 54 55 57 59 59 61 59 59 59 62 59 55 58 56 52 54 61 66 69 72 75 75 76 77
185 204 197 136 119 108 99 98 91 85 82 78 75 75 82 79 74 66 63 58 58 62 63 63 63 60 59 57 58 60 58 56 56 53 48 53 58 64 69 71 70 72 74
192 198 181 150 126 119 123 119 105 99 96 86 75 77 85 85 82 79 70 59 54 60 66 71 69 65 61 60 54 52 52 52 52 52 48 48 54 57 60 67 68 67 71
190 183 174 160 121 121 124 119 105 98 99 90 82 80 83 88 90 89 82 68 55 64 69 69 63 65 64 57 47 43 48 48 50 47 47 46 46 48 56 65 68 67 67
167 169 181 164 135 130 126 118 109 101 98 92 91 83 81 91 100 95 90 78 72 75 74 74 64 66 60 56 49 40 39 42 45 47 48 47 46 44 50 58 65 67 65
167 163 167 151 145 145 131 115 104 98 91 88 93 91 92 98 109 108 104 94 90 85 74 81 66 77 75 64 64 50 36 34 33 43 43 43 45 46 47 50 56 61 64
156 149 144 144 139 129 114 97 83 79 74 71 79 92 104 107 113 111 103 93 97 93 72 72 73 60 72 68 71 55 36 31 33 33 33 39 41 45 46 47 46 48 53
132 141 145 142 149 135 123 128 123 128 107 78 62 87 106 111 114 112 108 101 99 106 110 100 89 69 50 43 63 38 24 31 39 30 24 32 34 37 42 44 47 47 41
153 155 156 159 158 164 155 146 138 133 125 121 67 59 83 108 122 128 123 121 116 110 102 104 103 89 50 44 77 70 23 4 8 18 17 27 20 24 31 31 39 45 42
168 175 174 173 162 160 146 115 99 77 60 52 46 41 24 99 110 114 127 129 131 131 141 143 134 125 129 35 60 111 119 217 325 346 10 17 13 18 13 18 25 30 35
193 179 169 160 156 154 145 141 138 142 155 190 195 206 205 97 115 126 128 128 136 142 150 166 147 144 136 142 39 55 120 156 141 338 342 357 6 12 359 5 6 8 20
187 173 167 151 152 152 147 151 149 149 165 149 131 132 139 134 125 130 136 134 148 160 164 156 140 140 145 155 158 132 85 64 88 145 302 333 351 351 351 346 346 348 358
167 161 154 148 149 149 154 154 161 163 159 146 144 153 162 157 176 144 147 149 162 174 180 180 172 161 164 156 157 153 159 158 177 164 209 279 317 327 346 347 344 328 327
Height
1513 1512 1511 1510 1510 1509 1508 1507 1506 1506 1505 1504 1503 1502 1501 1500 1500 1499 1500 1499 1500 1501 1502 1504 1506 1507 1509 1510 1512 1513 1513 1514 1515 1515 1516 1516 1516 1516 1516 1517 1518 1519 1520
1514 1513 1512 1512 1511 1510 1510 1509 1508 1507 1507 1506 1505 1504 1503 1502 1502 1502 1502 1502 1503 1504 1505 1507 1508 1509 1510 1512 1513 1514 1514 1515 1515 1515 1516 1516 1515 1515 1515 1516 1518 1519 1520
1515 1514 1514 1513 1513 1512 1511 1510 1510 1509 1508 1507 1507 1506 1505 1505 1504 1504 1504 1504 1505 1506 1507 1508 1510 1511 1512 1513 1514 1514 1515 1515 1515 1516 1516 1515 1514 1513 1514 1515 1518 1519 1521
1516 1516 1515 1515 1514 1513 1513 1512 1511 1511 1510 1509 1508 1508 1507 1507 1506 1505 1505 1506 1507 1508 1509 1510 1511 1512 1513 1514 1515 1516 1516 1516 1516 1517 1516 1515 1514 1512 1512 1515 1518 1520 1521
1517 1517 1516 1516 1516 1515 1514 1514 1513 1512 1512 1511 1511 1510 1509 1508 1508 1507 1506 1506 1507 1508 1510 1511 1512 1513 1514 1515 1516 1517 1517 1517 1517 1518 1517 1517 1515 1514 1514 1517 1520 1521 1522
1518 1518 1518 1517 1517 1516 1516 1515 1515 1514 1514 1513 1513 1512 1511 1510 1509 1508 1507 1506 1507 1509 1511 1512 1514 1515 1516 1517 1517 1518 1518 1518 1519 1519 1519 1519 1519 1518 1519 1520 1522 1523 1524
1519 1519 1519 1519 1518 1518 1518 1517 1516 1516 1515 1515 1515 1514 1513 1512 1511 1509 1505 1504 1506 1510 1512 1514 1515 1516 1517 1518 1519 1519 1520 1520 1520 1520 1521 1521 1521 1521 1522 1523 1524 1525 1526
1520 1520 1520 1520 1519 1519 1519 1518 1518 1518 1517 1517 1516 1516 1515 1514 1513 1510 1505 1504 1508 1511 1513 1515 1517 1518 1519 1519 1520 1520 1521 1521 1522 1522 1522 1523 1523 1523 1524 1524 1525 1526 1527
1521 1521 1521 1521 1520 1520 1520 1520 1520 1519 1519 1519 1518 1518 1517 1516 1516 1514 1512 1511 1513 1514 1516 1517 1518 1519 1520 1521 1521 1522 1522 1522 1523 1523 1524 1524 1525 1525 1525 1526 1527 1528 1529
1522 1522 1522 1522 1522 1521 1521 1521 1521 1521 1521 1521 1520 1520 1520 1519 1518 1518 1517 1517 1517 1517 1518 1519 1520 1521 1522 1522 1523 1523 1523 1524 1524 1525 1525 1526 1526 1526 1527 1528 1528 1529 1529
1523 1523 1523 1523 1522 1522 1522 1522 1522 1522 1522 1522 1522 1522 1522 1521 1521 1520 1520 1520 1520 1520 1521 1521 1522 1523 1523 1523 1524 1524 1525 1525 1525 1526 1526 1527 1527 1527 1528 1528 1529 1530 1530
1523 1523 1523 1523 1522 1522 1522 1523 1523 1524 1524 1524 1524 1524 1524 1524 1524 1523 1523 1523 1523 1523 1523 1524 1524 1524 1524 1525 1525 1525 1526 1526 1527 1527 1528 1528 1528 1529 1529 1529 1530 1531 1531
1524 1524 1524 1523 1522 1522 1522 1523 1524 1525 1526 1526 1526 1526 1526 1526 1526 1526 1525 1525 1525 1525 1525 1525 1526 1526 1526 1526 1527 1527 1527 1527 1528 1528 1529 1529 1530 1530 1530 1531 1531 1531 1532
1525 1525 1524 1523 1522 1522 1523 1524 1525 1526 1527 1527 1528 1528 1528 1528 1528 1527 1527 1527 1527 1527 1527 1527 1527 1527 1528 1528 1528 1528 1529 1529 1529 1529 1530 1530 1531 1531 1531 1531 1531 1532 1532
1525 1525 1525 1524 1523 1523 1524 1525 1526 1527 1528 1529 1529 1529 1529 1529 1529 1529 1529 1528 1528 1528 1528 1528 1529 1529 1529 1529 1530 1530 1530 1530 1530 1531 1531 1531 1532 1532 1532 1532 1532 1532 1533
1525 1526 1525 1525 1524 1525 1525 1526 1527 1528 1529 1530 1530 1530 1531 1531 1531 1531 1530 1530 1530 1530 1530 1530 1530 1530 1530 1530 1531 1531 1531 1531 1531 1532 1532 1532 1533 1533 1533 1533 1533 1533 1533
1525 1526 1526 1526 1525 1526 1526 1527 1528 1529 1530 1531 1531 1532 1532 1532 1532 1532 1532 1532 1532 1532 1532 1532 1532 1532 1532 1532 1532 1532 1532 1532 1533 1533 1533 1533 1533 1533 1534 1534 1534 1534 1534
1525 1526 1526 1526 1526 1526 1527 1528 1529 1530 1531 1531 1532 1533 1533 1533 1533 1533 1533 1533 1533 1533 1533 1533 1533 1533 1533 1533 1533 1534 1534 1534 1534 1534 1534 1534 1534 1534 1534 1534 1535 1535 1535
1525 1525 1526 1527 1527 1527 1528 1529 1530 1530 1531 1532 1533 1533 1533 1533 1534 1534 1534 1534 1534 1534 1534 1534 1534 1534 1534 1534 1534 1535 1535 1535 1535 1535 1535 1535 1535 1535 1535 1535 1535 1535 1536
1525 1525 1526 1527 1527 1528 1529 1529 1530 1531 1532 1532 1533 1533 1534 1534 1535 1535 1535 1535 1535 1535 1535 1535 1535 1535 1535 1535 1536 1536 1536 1536 1536 1536 1536 1536 1536 1536 1536 1536 1536 1536 1536
1523 1524 1525 1526 1527 1528 1528 1529 1530 1531 1532 1532 1533 1533 1534 1534 1535 1535 1535 1536 1536 1536 1536 1536 1536 1536 1536 1536 1537 1537 1537 1537 1537 1537 1537 1537 1537 1537 1537 1537 1536 1536 1536
1522 1523 1524 1525 1526 1527 1528 1529 1530 1531 1532 1532 1533 1533 1534 1534 1535 1535 1535 1536 1536 1536 1536 1537 1537 1537 1537 1537 1537 1537 1537 1539 1537 1537 1537 1537 1537 1537 1537 1537 1537 1537 1537
1520 1522 1523 1525 1526 1527 1528 1529 1530 1531 1531 1532 1532 1533 1533 1534 1534 1534 1535 1535 1536 1536 1536 1537 1537 1537 1537 1538 1538 1538 1538 1538 1538 1538 1538 1538 1538 1537 1537 1537 1537 1537 1537
1518 1520 1522 1523 1525 1526 1527 1528 1528 1529 1530 1530 1531 1532 1532 1533 1533 1534 1534 1535 1535 1536 1536 1536 1537 1537 1537 1537 1538 1538 1538 1538 1538 1537 1538 1538 1538 1537 1537 1537 1537 1537 1537
1517 1519 1521 1522 1523 1524 1525 1527 1528 1528 1529 1530 1530 1531 1531 1532 1532 1533 1533 1534 1534 1535 1535 1536 1536 1536 1537 1537 1537 1537 1537 1537 1537 1537 1537 1537 1537 1537 1537 1537 1537 1536 1537
1515 1517 1519 1520 1522 1523 1524 1525 1526 1527 1528 1528 1529 1529 1530 1530 1531 1532 1532 1533 1533 1534 1534 1535 1535 1536 1536 1536 1536 1536 1536 1536 1536 1536 1536 1536 1536 1536 1536 1536 1536 1536 1536